TimeAKST,TemperatureF,Dew PointF,Humidity,Sea Level PressureIn,VisibilityMPH,Wind Direction,Wind SpeedMPH,Gust SpeedMPH,PrecipitationIn,Events,Conditions,WindDirDegrees,DateUTC
12:16 AM,42.8,30.2,61,29.23,10.0,SE,32.2,43.7,N/A,,Clear,140,2014-01-24 09:16:00
12:36 AM,42.8,32.0,66,29.23,10.0,SE,34.5,41.4,N/A,,Scattered Clouds,140,2014-01-24 09:36:00
12:56 AM,42.8,30.2,61,29.26,10.0,SSE,28.8,41.4,N/A,,Partly Cloudy,150,2014-01-24 09:56:00
1:16 AM,41.0,30.2,65,29.28,10.0,SSE,25.3,35.7,N/A,,Clear,150,2014-01-24 10:16:00
1:36 AM,42.8,30.2,61,29.28,10.0,SSE,26.5,35.7,N/A,,Clear,150,2014-01-24 10:36:00
1:56 AM,-9999,-9999,N/A,29.25,10.0,SE,15.0,43.7,N/A,,Clear,140,2014-01-24 10:56:00
2:16 AM,-9999,-9999,N/A,29.28,10.0,SSE,29.9,40.3,N/A,,Clear,150,2014-01-24 11:16:00
2:36 AM,41.0,30.2,65,29.32,10.0,SSE,21.9,29.9,N/A,,Clear,150,2014-01-24 11:36:00
2:56 AM,41.0,30.2,65,29.34,10.0,SSE,25.3,31.1,N/A,,Partly Cloudy,150,2014-01-24 11:56:00
3:16 AM,41.0,30.2,65,29.36,10.0,SE,23.0,33.4,N/A,,Scattered Clouds,140,2014-01-24 12:16:00
3:36 AM,41.0,30.2,65,29.37,10.0,SSE,23.0,32.2,N/A,,Scattered Clouds,150,2014-01-24 12:36:00
3:56 AM,41.0,30.2,65,29.37,10.0,SSE,24.2,33.4,N/A,,Partly Cloudy,150,2014-01-24 12:56:00
4:16 AM,39.2,28.4,65,29.40,10.0,SE,18.4,31.1,N/A,,Clear,140,2014-01-24 13:16:00
4:36 AM,39.2,30.2,70,29.40,10.0,SE,21.9,29.9,N/A,,Clear,140,2014-01-24 13:36:00
4:56 AM,39.2,28.4,65,29.42,10.0,SE,18.4,25.3,N/A,,Clear,140,2014-01-24 13:56:00
5:16 AM,39.2,28.4,65,29.44,10.0,SE,13.8,-,N/A,,Clear,130,2014-01-24 14:16:00
5:36 AM,39.2,28.4,65,29.45,10.0,SE,15.0,-,N/A,,Clear,140,2014-01-24 14:36:00
5:56 AM,37.4,28.4,70,29.46,10.0,SE,17.3,-,N/A,,Clear,140,2014-01-24 14:56:00
6:16 AM,39.2,28.4,65,29.46,10.0,SE,19.6,-,N/A,,Clear,130,2014-01-24 15:16:00
6:36 AM,39.2,28.4,65,29.46,10.0,SE,25.3,31.1,N/A,,Clear,140,2014-01-24 15:36:00
6:56 AM,39.2,28.4,65,29.48,10.0,SE,25.3,-,N/A,,Clear,140,2014-01-24 15:56:00
7:16 AM,39.2,28.4,65,29.49,10.0,SE,24.2,31.1,N/A,,Clear,140,2014-01-24 16:16:00
7:36 AM,37.4,28.4,70,29.51,10.0,SE,19.6,26.5,N/A,,Clear,140,2014-01-24 16:36:00
7:56 AM,37.4,26.6,65,29.54,10.0,SSE,16.1,-,N/A,,Clear,150,2014-01-24 16:56:00
8:16 AM,37.4,26.6,65,29.56,10.0,SSE,16.1,-,N/A,,Clear,150,2014-01-24 17:16:00
8:36 AM,37.4,26.6,65,29.58,10.0,SSE,16.1,-,N/A,,Clear,160,2014-01-24 17:36:00
8:56 AM,37.4,26.6,65,29.60,10.0,SSE,17.3,-,N/A,,Clear,160,2014-01-24 17:56:00
9:16 AM,37.4,26.6,65,29.63,10.0,SSE,13.8,-,N/A,,Clear,150,2014-01-24 18:16:00
9:36 AM,37.4,26.6,65,29.64,10.0,SE,6.9,-,N/A,,Clear,130,2014-01-24 18:36:00
9:56 AM,37.4,26.6,65,29.67,10.0,ESE,5.8,-,N/A,,Clear,110,2014-01-24 18:56:00
10:16 AM,37.4,26.6,65,29.69,10.0,SE,6.9,-,N/A,,Clear,140,2014-01-24 19:16:00
10:36 AM,37.4,26.6,65,29.70,10.0,SSE,18.4,-,N/A,,Clear,150,2014-01-24 19:36:00
10:56 AM,37.4,26.6,65,29.71,10.0,South,16.1,-,N/A,,Clear,170,2014-01-24 19:56:00
11:16 AM,37.4,26.6,65,29.74,10.0,South,4.6,-,N/A,,Clear,170,2014-01-24 20:16:00
11:36 AM,39.2,26.6,61,29.75,10.0,SSE,5.8,-,N/A,,Clear,160,2014-01-24 20:36:00
11:56 AM,39.2,28.4,65,29.77,10.0,SE,15.0,18.4,N/A,,Clear,130,2014-01-24 20:56:00
12:16 PM,39.2,26.6,61,29.78,10.0,SE,17.3,-,N/A,,Clear,140,2014-01-24 21:16:00
12:36 PM,39.2,28.4,65,29.80,10.0,SE,16.1,-,N/A,,Clear,140,2014-01-24 21:36:00
12:56 PM,39.2,26.6,61,29.80,10.0,SSE,16.1,-,N/A,,Clear,150,2014-01-24 21:56:00
1:16 PM,41.0,26.6,57,29.81,10.0,SSE,18.4,-,N/A,,Clear,150,2014-01-24 22:16:00
1:36 PM,41.0,26.6,57,29.82,10.0,SSE,16.1,-,N/A,,Clear,150,2014-01-24 22:36:00
1:56 PM,41.0,26.6,57,29.83,10.0,SSE,12.7,-,N/A,,Clear,150,2014-01-24 22:56:00
2:16 PM,41.0,26.6,57,29.83,10.0,SSE,15.0,-,N/A,,Clear,160,2014-01-24 23:16:00
2:36 PM,41.0,26.6,57,29.83,10.0,SSE,16.1,-,N/A,,Clear,150,2014-01-24 23:36:00
2:56 PM,41.0,24.8,53,29.83,10.0,SSE,15.0,21.9,N/A,,Clear,150,2014-01-24 23:56:00
3:16 PM,41.0,24.8,53,29.84,10.0,SE,10.4,-,N/A,,Clear,140,2014-01-25 00:16:00
3:36 PM,41.0,24.8,53,29.85,10.0,SE,12.7,-,N/A,,Clear,140,2014-01-25 00:36:00
3:56 PM,39.2,26.6,61,29.85,10.0,SE,9.2,-,N/A,,Clear,140,2014-01-25 00:56:00
4:16 PM,39.2,26.6,61,29.85,10.0,SE,11.5,-,N/A,,Clear,140,2014-01-25 01:16:00
4:36 PM,39.2,26.6,61,29.85,10.0,SE,11.5,-,N/A,,Clear,140,2014-01-25 01:36:00
4:56 PM,39.2,26.6,61,29.86,10.0,SE,13.8,-,N/A,,Clear,140,2014-01-25 01:56:00
5:16 PM,37.4,26.6,65,29.86,10.0,SSE,15.0,-,N/A,,Clear,150,2014-01-25 02:16:00
5:36 PM,37.4,26.6,65,29.88,10.0,SE,12.7,-,N/A,,Clear,140,2014-01-25 02:36:00
5:56 PM,37.4,24.8,60,29.88,10.0,SE,13.8,-,N/A,,Clear,130,2014-01-25 02:56:00
6:16 PM,35.6,26.6,70,29.88,10.0,SE,15.0,-,N/A,,Clear,140,2014-01-25 03:16:00
6:36 PM,35.6,26.6,70,29.88,10.0,SE,10.4,-,N/A,,Clear,130,2014-01-25 03:36:00
6:56 PM,35.6,24.8,65,29.88,10.0,SE,10.4,-,N/A,,Clear,130,2014-01-25 03:56:00
7:16 PM,33.8,24.8,70,29.88,10.0,SE,10.4,-,N/A,,Clear,130,2014-01-25 04:16:00
7:36 PM,33.8,24.8,70,29.88,10.0,SE,6.9,-,N/A,,Clear,140,2014-01-25 04:36:00
7:56 PM,33.8,24.8,70,29.88,10.0,SE,6.9,-,N/A,,Clear,140,2014-01-25 04:56:00
8:16 PM,35.6,24.8,65,29.88,10.0,SSE,3.5,-,N/A,,Clear,150,2014-01-25 05:16:00
8:36 PM,35.6,24.8,65,29.87,10.0,SE,9.2,-,N/A,,Clear,140,2014-01-25 05:36:00
8:56 PM,37.4,26.6,65,29.86,10.0,ESE,6.9,-,N/A,,Clear,120,2014-01-25 05:56:00
9:16 PM,37.4,24.8,60,29.86,10.0,SE,6.9,-,N/A,,Partly Cloudy,140,2014-01-25 06:16:00
9:36 PM,35.6,23.0,60,29.86,10.0,North,8.1,-,N/A,,Clear,10,2014-01-25 06:36:00
9:56 PM,33.8,23.0,65,29.86,10.0,NNW,8.1,-,N/A,,Clear,340,2014-01-25 06:56:00
10:16 PM,33.8,24.8,70,29.85,10.0,NNW,6.9,-,N/A,,Clear,330,2014-01-25 07:16:00
10:36 PM,35.6,24.8,65,29.84,10.0,NNW,6.9,-,N/A,,Clear,340,2014-01-25 07:36:00
10:56 PM,35.6,26.6,70,29.83,10.0,North,-9999.0,-,N/A,,Clear,0,2014-01-25 07:56:00
11:16 PM,32.0,24.8,75,29.81,10.0,NE,5.8,-,N/A,,Clear,50,2014-01-25 08:16:00
11:36 PM,33.8,24.8,70,29.80,10.0,ENE,9.2,-,N/A,,Clear,60,2014-01-25 08:36:00
11:56 PM,35.6,26.6,70,29.78,10.0,NE,11.5,-,N/A,,Mostly Cloudy,50,2014-01-25 08:56:00